Location: Aalen
(48.8330°N, 10.1000°E)
Time: 01:44:34
(UTC+01:00)

BlueWalker 3 - Pass Details

Date: 07 December 2022
Orbit: 499 x 517 km, 53.2° (Epoch: 26 January)

Event Time Altitude Azimuth Distance (km) Brightness Sun altitude
Rises 16:58:31 0° 287° (WNW) 2,637 6.4 -5.8°
Reaches altitude 10° 17:00:48 10° 293° (WNW) 1,746 5.3 -6.1°
Maximum altitude 17:04:37 46° 8° (N) 702 2.4 -6.7°
Drops below altitude 10° 17:08:24 10° 83° (E) 1,730 4.1 -7.2°
Enters shadow 17:08:51 - 84° (E) 1,906 4.3 -7.3°
